Location: Jezerski
(44.9817°N, 16.0945°E)
Time: 20:03:13
(UTC+00:00)

Daily predictions for brighter satellites

Satellite Brightness Start Highest point End
(mag) Time Altitude Azimuth Time Altitude Azimuth Time Altitude Azimuth
CZ-4 R/B 3.5 18:13:00 10° SSW 18:16:47 32° W 18:20:37 10° NNW
BREEZE M DEB (TANK) 4.2 18:01:39 10° SW 18:16:51 51° SSE 18:21:03 10° ENE
OBJECT-B 1.6 18:14:12 10° SE 18:17:08 33° ENE 18:20:06 10° N
SL-27 R/B 3.8 18:15:02 10° SW 18:18:24 44° WNW 18:21:45 10° N
ATLAS 2AS CENTAUR R/B 3.1 18:10:40 10° SSW 18:18:27 65° ESE 18:26:10 10° NE
Cosmos 2322 Rocket 3.3 18:13:04 10° NW 18:18:30 47° WSW 18:23:55 10° S
NOSS 7 (H) 4.3 18:16:58 10° SSW 18:20:32 56° SE 18:23:29 10° NE
Cosmos 1606 Rocket 3.5 18:16:45 10° S 18:21:06 71° E 18:25:27 10° NNE
Cosmos 1892 2.9 18:17:25 10° N 18:21:06 48° ENE 18:24:46 10° SSE
Cosmos 2333 Rocket 2.5 18:16:57 10° NNW 18:22:37 54° ENE 18:28:13 10° SE
BREEZE-M DEB (TANK) 3.4 18:20:35 10° SSW 18:26:01 29° SSE 18:28:27 10° E
Cosmos 1726 Rocket 3.5 18:27:15 10° S 18:31:37 72° E 18:35:58 10° NNE
Helios 1A Rocket 3.5 18:28:31 10° S 18:32:32 59° WSW 18:36:36 10° NNW
CZ-4C R/B 3.4 18:28:21 10° WSW 18:33:10 45° NW 18:38:58 10° NNE
Ariane Rocket 3.3 18:28:24 10° SE 18:33:14 48° ENE 18:38:06 10° N
Cosmos 2322 3.8 18:28:01 10° NNW 18:33:41 68° ENE 18:39:18 10° SE
Cosmos 2344 3.7 18:26:32 10° S 18:33:43 48° ESE 18:40:59 10° NE
Cosmos 1825 3.0 18:30:35 10° N 18:33:59 31° ENE 18:37:10 11° SE
Cosmos 1302 Rocket 4.4 18:29:34 10° NNW 18:34:52 70° WSW 18:40:05 10° S
Cosmos 1269 Rocket 4.4 18:29:48 10° SSW 18:35:05 72° WNW 18:40:25 10° NNE
Cosmos 2228 3.5 18:33:39 10° SSW 18:37:57 64° W 18:42:16 10° N
MetOp-A 4.3 18:34:38 10° SSE 18:39:59 82° WSW 18:45:23 10° NNW
Cosmos 1408 2.4 18:39:03 10° N 18:42:37 67° E 18:46:09 10° SSE
RESURS DK-1 2.7 18:40:23 10° S 18:44:16 42° ESE 18:48:12 10° NE
SL-16 R/B 4.3 18:49:26 10° N 18:52:05 13° NE 18:54:45 10° ENE
Cosmos 2058 3.1 18:49:37 10° N 18:53:44 52° ENE 18:57:05 14° SSE
CZ-2C R/B 4.4 18:50:16 10° N 18:54:58 35° WNW 18:59:41 10° SW
Cosmos 1992 Rocket 3.9 18:51:59 10° NNW 18:57:14 79° ENE 19:01:52 13° SSE
Cosmos 2058 Rocket 3.0 18:53:14 10° S 18:57:35 83° E 19:01:57 10° N
Cosmos 2360 Rocket 3.5 18:54:14 10° NW 18:59:26 38° WSW 19:04:34 10° S
ATLAS 3B R/B 2.9 18:53:17 10° NW 19:00:18 69° NE 19:05:55 18° SE
COSMOS 2487 3.1 18:58:26 10° SSW 19:01:46 55° WNW 19:05:08 10° NNE
USA 186 3.5 18:59:26 10° SSW 19:02:22 32° W 19:05:15 10° NNW
COSMOS 2428 2.7 18:57:25 10° NNW 19:03:12 79° ENE 19:07:46 17° SSE
Cosmos 1953 Rocket 4.3 18:58:59 10° NNW 19:03:15 54° W 19:07:27 10° S
USA 215 3.7 18:58:18 14° E 19:03:48 53° NNE 19:10:07 10° NW
Cosmos 1092 Rocket 4.1 19:00:32 10° N 19:06:50 81° W 19:13:00 10° S
Cosmos 2151 4.3 19:04:06 10° NNE 19:07:32 23° ENE 19:08:42 20° E
Cosmos 1076 Rocket 4.0 19:07:08 10° N 19:11:18 43° ENE 19:13:19 25° SE
Cosmos 1818 3.5 19:06:27 10° SSW 19:11:49 66° ESE 19:17:15 10° NE
Cosmos 1812 Rocket 4.3 19:10:52 24° SE 19:12:45 34° E 19:16:46 10° NNE
FALCON 9 DEB 3.0 19:09:56 10° SW 19:13:20 77° SE 19:16:30 12° ENE
Cosmos 909 Rocket 4.0 19:07:16 10° SSW 19:13:36 65° ESE 19:19:54 10° NE
NOSS 0 Rocket 4.1 19:09:02 10° NNW 19:15:13 60° ENE 19:19:06 23° SE
Cosmos 407 Rocket 4.3 19:13:32 23° SE 19:15:15 28° E 19:19:38 10° NE
Resurs 01 Rocket 1.7 19:12:45 22° SSE 19:15:30 61° ENE 19:19:54 10° N
Cosmos 44 3.4 19:11:12 10° SSW 19:16:16 81° ESE 19:21:39 10° NE
Cosmos 2219 Rocket 2.4 19:10:54 10° NNW 19:16:35 71° WSW 19:21:13 16° SSE
Cosmos 1455 2.8 19:15:16 10° SSW 19:18:58 56° W 19:22:39 10° N
IRIDIUM 103 4.5 19:17:51 19° SSE 19:21:29 54° E 19:26:34 10° NNE
Resurs 1-3 4.0 19:23:14 13° S 19:27:00 61° W 19:31:22 10° NNW
IGS 5A 3.4 19:27:42 32° SSE 19:29:31 70° ENE 19:33:40 10° N
Cosmos 1633 3.3 19:26:37 10° N 19:29:57 34° ENE 19:30:05 34° E
Cosmos 1356 3.2 19:27:55 10° N 19:31:22 79° E 19:32:12 48° SSE
Lacrosse 5 rocket 4.0 19:29:30 10° NW 19:32:22 18° N 19:35:21 10° NE
ATLAS 5 CENTAUR R/B 2.4 19:31:24 10° WNW 19:33:05 24° SW 19:33:14 24° SW
Cosmos 1809 Rocket 4.4 19:27:27 10° N 19:33:31 65° ENE 19:36:59 27° SSE
Cosmos 405 Rocket 2.7 19:31:43 10° N 19:35:45 86° W 19:37:21 35° S
Cosmos 2292 Rocket 4.3 19:29:25 10° N 19:36:29 77° E 19:39:37 27° SSE
IRIDIUM 106 4.2 19:36:08 20° S 19:39:44 78° E 19:44:58 10° N
Cosmos 1140 Rocket 3.8 19:38:38 36° SE 19:39:46 41° ESE 19:44:34 10° NE
SPOT 5 3.9 19:40:17 26° E 19:40:58 27° ENE 19:44:54 10° N
Cosmos 2279 Rocket 3.9 19:35:00 10° S 19:41:11 88° E 19:47:25 10° N
Spot 2 Rocket 3.9 19:41:31 36° ESE 19:43:05 48° ENE 19:47:58 10° N
Cosmos 2237 Rocket 2.3 19:37:50 10° NNW 19:43:27 62° ENE 19:45:36 37° SE
Exosat Rocket 4.1 19:37:42 10° NNW 19:44:01 61° WSW 19:47:11 23° S
BREEZE-M DEB (TANK) 3.7 19:40:20 10° W 19:44:48 82° N 19:48:44 21° E
SL-8 R/B 3.8 19:42:53 10° WNW 19:47:41 65° SSW 19:48:58 45° SSE
CZ-2C R/B 3.5 19:44:15 10° NNE 19:48:43 77° ESE 19:50:39 33° S
OBJECT-B 3.8 19:47:56 10° WSW 19:49:30 13° W 19:51:03 10° WNW
Terra 3.1 19:50:06 25° ENE 19:50:34 25° ENE 19:54:26 10° N
Meteor 2-14 Rocket 4.3 19:47:40 10° N 19:53:46 77° E 19:56:27 35° SSE
MetOp-B 4.1 19:52:09 33° S 19:54:41 84° WSW 20:00:05 10° NNW
Cosmos 2227 Rocket 2.4 19:57:04 43° SE 19:58:03 48° ESE 20:03:29 10° NE
SPOT 1/Viking Rocket 3.5 19:58:13 42° SSE 20:00:02 85° ENE 20:05:18 10° NNW
Cosmos 389 Rocket 3.3 20:00:14 30° SW 20:01:37 48° WNW 20:05:05 10° N
Cosmos 2297 Rocket 2.1 20:02:12 26° S 20:05:25 70° ESE 20:11:04 10° NNE
Cosmos 2333 Rocket 4.1 20:01:56 10° NW 20:06:29 25° WSW 20:10:56 10° SSW
SPOT 3 Rocket 4.3 20:03:45 24° SSW 20:06:39 49° W 20:11:42 10° NNW
Cosmos 2266 Rocket 3.9 20:01:08 10° N 20:07:33 76° E 20:09:47 43° SSE
Cosmos 2219 3.1 20:05:52 37° S 20:08:04 67° ESE 20:13:40 10° NNE
Cosmos 1190 Rocket 3.9 20:07:40 53° SSE 20:08:38 64° ESE 20:13:49 10° NNE
BREEZE-M DEB (TANK) 3.6 20:07:05 10° WNW 20:08:17 29° NW 20:08:17 29° NW
ARIANE 5 R/B 2.4 20:09:20 71° SE 20:09:43 79° ENE 20:14:08 10° N
ATLAS 2AS CENTAUR R/B 4.3 20:02:33 10° WSW 20:09:55 41° NW 20:17:08 10° NNE
Timation 2 Rocket 3.9 20:10:14 27° S 20:13:57 66° ESE 20:20:15 10° NNE
Meteor 2-21 Rocket 4.3 20:08:18 10° N 20:14:23 86° E 20:16:20 46° SSE
USA 245 3.9 20:24:38 52° W 20:24:38 52° W 20:28:03 10° NNW
Genesis I 3.8 20:22:00 10° NNW 20:25:22 53° N 20:25:22 53° N
Cosmos-2242 3.1 20:25:50 70° WSW 20:26:04 72° W 20:30:23 10° N
Cosmos 676 Rocket 4.3 20:26:56 48° ENE 20:26:56 48° ENE 20:31:08 10° NNE
Meteor 2-16 Rocket 4.4 20:21:39 10° N 20:27:51 89° W 20:29:25 53° S
Cosmos 1655 Rocket 4.4 20:29:10 10° NNW 20:35:19 58° W 20:37:46 36° SSW
SL-16 R/B 2.3 20:31:49 10° NNW 20:37:29 60° ENE 20:37:53 59° E
Cosmos 1980 4.3 20:33:07 10° NW 20:38:33 48° WSW 20:39:45 41° SW
Cosmos 2151 4.3 20:41:00 10° NNW 20:44:53 33° W 20:45:17 33° WSW
USA 215 3.3 20:45:38 53° S 20:46:45 60° SW 20:53:14 10° NW
Meteor 2-3 Rocket 4.3 20:41:33 10° NNW 20:47:09 54° W 20:48:26 44° SW
Meteor 1-27 4.4 20:47:48 53° SW 20:49:05 72° WNW 20:54:55 10° N
ATLAS 3B R/B 4.1 20:44:38 10° NW 20:50:34 29° WSW 20:53:12 23° SW
Cosmos 2221 4.3 20:53:18 24° NNE 20:53:18 24° NNE 20:55:14 10° NNE
Resurs 01 Rocket 4.2 20:50:18 11° WSW 20:52:23 14° W 20:54:49 10° WNW
Cosmos 1553 Rocket 4.5 20:54:34 44° ENE 20:54:34 44° ENE 20:59:36 10° NNE
ERS-1 Rocket 3.2 20:54:40 60° WSW 20:54:41 60° W 20:59:40 10° NNW
Okean 3 Rocket 4.3 20:55:33 10° NNW 20:59:21 52° WNW 20:59:21 52° WNW
Cosmos 1943 4.5 21:02:05 10° N 21:06:57 29° NE 21:07:11 29° NE
Meteor 2-15 4.3 21:09:37 80° WSW 21:09:52 83° W 21:15:58 10° N
Cosmos 1954 Rocket 4.3 21:12:17 59° WNW 21:12:17 59° WNW 21:17:23 10° NNE
Lacrosse 5 rocket 3.8 21:09:46 10° NNW 21:12:54 19° NNE 21:14:11 17° NE
Meteor 2-2 Rocket 4.3 21:18:00 73° NNE 21:18:00 73° NNE 21:23:10 10° NNE
COSMOS 2455 2.8 21:18:15 81° NNW 21:18:15 81° NNW 21:24:05 10° NNE
SPOT 5 4.1 21:19:30 33° W 21:19:30 33° W 21:23:10 10° NNW
SeaSat 1 3.8 21:21:59 10° NNE 21:24:38 32° NE 21:24:38 32° NE
Cosmos 2237 Rocket 4.0 21:22:54 10° NW 21:26:58 21° W 21:27:26 20° WSW
Terra 3.0 21:28:59 36° WNW 21:28:59 36° WNW 21:32:36 10° NNW
Cosmos 2082 4.2 21:39:13 54° WNW 21:39:15 54° WNW 21:44:47 10° NNE
Cosmos 2263 Rocket 3.5 21:42:46 30° NE 21:42:46 30° NE 21:45:40 10° NE
Cosmos 2227 Rocket 3.8 21:38:45 16° WSW 21:42:19 30° NW 21:47:17 10° N
USA 229 DEB 4.1 21:37:59 10° NW 21:45:13 62° NE 21:46:08 58° E
USA 229 4.1 21:38:05 10° NW 21:45:19 62° NE 21:46:15 58° E
Cosmos 2297 Rocket 4.3 21:45:40 10° W 21:50:02 22° NW 21:54:25 10° N
Cosmos 1603 4.3 21:45:57 10° NNW 21:50:37 53° NNE 21:50:37 53° NNE
Cosmos 841 Rocket 4.4 21:47:50 10° NNW 21:51:30 46° NNW 21:51:30 46° NNW
Cosmos 1745 Rocket 4.1 21:50:55 10° N 21:56:33 71° NNW 21:56:33 71° NNW
Cosmos 1709 Rocket 4.3 21:56:51 10° N 22:02:05 58° NNE 22:02:05 58° NNE
NOSS 3-1 (A) 4.1 21:55:39 10° NW 22:03:09 72° NE 22:04:04 66° E
S3M 4.2 22:08:54 67° NW 22:08:54 67° NW 22:14:42 10° N
SL-16 R/B 4.1 22:16:53 10° NW 22:19:46 20° W 22:19:46 20° W
NOSS 3-1 (C) 4.2 22:21:45 10° NW 22:28:43 61° WSW 22:28:43 61° WSW
Lacrosse 5 rocket 4.0 22:48:39 10° NW 22:49:47 17° NW 22:49:47 17° NW
SeaSat 1 4.5 23:00:21 10° N 23:03:59 21° NW 23:04:24 21° NW
Cosmos 2184 Rocket 4.3 23:07:19 10° N 23:12:34 63° N 23:12:34 63° N
Cosmos 2263 Rocket 3.8 23:24:25 27° NW 23:24:29 27° NW 23:29:10 10° N
USA 281 3.4 23:33:03 63° NW 23:33:03 63° NW 23:38:33 10° NNW
Cosmos 1844 Rocket 3.4 23:39:31 49° NNE 23:39:31 49° NNE 23:43:35 10° NNE
SL-4 R/B 4.2 23:41:43 28° NE 23:41:43 28° NE 23:44:30 10° ENE
SJ 16-02 3.7 23:56:01 18° ENE 23:56:01 18° ENE 23:57:47 10° NE
